Weather History for Fort Myers, FL

Change the Weather History Date:

Sunday, January 8, 2012

  Actual Average Record
Temperature  
Mean Temperature 66 °F 64 °F  
Max Temperature 80 °F 74 °F 86 °F (1989)
Min Temperature 52 °F 54 °F 37 °F (1958)
Degree Days  
Heating Degree Days 0 4  
Month to date heating degree days 51 32  
Since 1 July heating degree days 79 125  
Cooling Degree Days 1 3  
Month to date cooling degree days 4 24  
Year to date cooling degree days 4 24  
Growing Degree Days 16 (Base 50)    
Moisture  
Dew Point 51 °F    
Average Humidity 65    
Maximum Humidity 93    
Minimum Humidity 35    
Precipitation  
Precipitation 0.00 in 0.06 in 1.44 in (1945)
Month to date precipitation 0.00 0.50  
Year to date precipitation 0.00 0.50  
Sea Level Pressure  
Sea Level Pressure 30.20 in    
Wind  
Wind Speed 3 mph (ESE)    
Max Wind Speed 13 mph    
Max Gust Speed 17 mph    
Visibility 10 miles    
Events      
T = Trace of Precipitation, MM = Missing Value Source: NWS Daily Summary

Daily Weather History Graph

Daily Weather History Graph

Search for Another Location

Airport:

Trip Planner

Search our weather history database for the weather conditions in past years. The results will help you decide how hot, cold, wet, or windy it might be!

Date:

Astronomy

Jan. 08, 2012 Rise Set
Actual Time 7:17 AM EST 5:51 PM EST
Civil Twilight 6:51 AM EST 6:16 PM EST
Nautical Twilight 6:23 AM EST 6:44 PM EST
Astronomical Twilight 5:55 AM EST 7:13 PM EST
Moon 5:31 PM EST (1/8) 6:34 AM EST (1/8)
Length of Visible Light 11h 24m
Length of Day
10h 33m
Full, 100% of the Moon is Illuminated
Jan 8
Full
Jan 9
Full
Jan 16
Last Quarter
Jan 23
New
Jan 30
First Quarter

Hourly Weather History & Observations

Time (EST) Temp. Dew Point Humidity Pressure Visibility Wind Dir Wind Speed Gust Speed Precip Events Conditions
12:53 AM 55.9 °F 52.0 °F 87% 30.19 in 10.0 mi Calm Calm - N/A   Clear
1:53 AM 55.0 °F 52.0 °F 89% 30.19 in 10.0 mi Calm Calm - N/A   Clear
2:53 AM 54.0 °F 51.1 °F 90% 30.18 in 9.0 mi Calm Calm - N/A   Clear
3:53 AM 54.0 °F 50.0 °F 86% 30.18 in 9.0 mi Calm Calm - N/A   Clear
4:53 AM 54.0 °F 50.0 °F 86% 30.18 in 9.0 mi Calm Calm - N/A   Clear
5:53 AM 52.0 °F 48.0 °F 86% 30.19 in 10.0 mi Calm Calm - N/A   Clear
6:53 AM 53.1 °F 46.9 °F 80% 30.20 in 10.0 mi Calm Calm - N/A   Clear
7:53 AM 54.0 °F 48.0 °F 80% 30.22 in 10.0 mi Calm Calm - N/A   Clear
8:53 AM 61.0 °F 50.0 °F 67% 30.24 in 10.0 mi Calm Calm - N/A   Clear
9:53 AM 68.0 °F 54.0 °F 61% 30.25 in 10.0 mi SE 4.6 mph - N/A   Clear
10:53 AM 73.9 °F 52.0 °F 46% 30.25 in 10.0 mi SE 10.4 mph - N/A   Clear
11:53 AM 77.0 °F 50.0 °F 39% 30.22 in 10.0 mi ESE 8.1 mph - N/A   Clear
12:53 PM 78.1 °F 48.9 °F 36% 30.19 in 10.0 mi ESE 10.4 mph - N/A   Clear
1:53 PM 79.0 °F 48.9 °F 35% 30.17 in 10.0 mi East 6.9 mph - N/A   Clear
2:53 PM 80.1 °F 50.0 °F 35% 30.16 in 10.0 mi ESE 6.9 mph - N/A   Clear
3:53 PM 78.1 °F 51.1 °F 39% 30.15 in 10.0 mi ESE 5.8 mph - N/A   Clear
4:53 PM 78.1 °F 52.0 °F 40% 30.16 in 10.0 mi SE 5.8 mph - N/A   Scattered Clouds
5:53 PM 70.0 °F 57.0 °F 63% 30.19 in 10.0 mi WSW 5.8 mph - N/A   Clear
7:53 PM 68.0 °F 54.0 °F 61% 30.22 in 10.0 mi NNW 3.5 mph - N/A   Overcast
8:53 PM 66.9 °F 53.1 °F 61% 30.22 in 10.0 mi Calm Calm - N/A   Partly Cloudy
9:53 PM 64.0 °F 54.0 °F 70% 30.22 in 10.0 mi ESE 3.5 mph - N/A   Clear
10:53 PM 62.1 °F 55.0 °F 78% 30.22 in 10.0 mi ESE 3.5 mph - N/A   Clear
11:53 PM 61.0 °F 53.1 °F 75% 30.19 in 10.0 mi East 4.6 mph - N/A   Clear